User: anonymous   Login
Location: Artiguedieu
(43.5000°N, 0.5454°E)
Time: 21:11:44
(UTC+00:00)
Language:

MOZHAYETS 4 - Orbit

View from above orbital plane
View from above orbital plane
View from above satellite
View from above satellite

Ground track
Ground track

The orbit data is extracted from the following two-line orbital elements,

1 27939U 03042A   21262.64373309  .00000121  00000-0  30316-4 0  9998
2 27939  98.1530  39.1500 0012524 348.6014  11.4911 14.67022354961339
Epoch (UTC): 19 September 2021 15:26:58
Eccentricity: 0.0012524
inclination: 98.1530°
perigee height: 662 km
apogee height: 679 km
right ascension of ascending node: 39.1500°
argument of perigee: 348.6014°
revolutions per day: 14.67022354
mean anomaly at epoch: 11.4911°
orbit number at epoch: 96133

The dashed part of the orbit path shows where the satellite is in the earth's shadow,  

DLR